Year,Month,Day,Hour,Minute,Value (Times are PST for temperature in C)
2017,08,06,00,00,16.90
2017,08,06,00,01,16.90
2017,08,06,00,02,16.90
2017,08,06,00,03,16.80
2017,08,06,00,04,16.80
2017,08,06,00,05,16.80
2017,08,06,00,06,16.80
2017,08,06,00,07,16.80
2017,08,06,00,08,16.80
2017,08,06,00,09,16.80
2017,08,06,00,10,16.70
2017,08,06,00,11,16.70
2017,08,06,00,12,16.70
2017,08,06,00,13,16.70
2017,08,06,00,14,16.70
2017,08,06,00,15,16.70
2017,08,06,00,16,16.70
2017,08,06,00,17,16.70
2017,08,06,00,18,16.70
2017,08,06,00,19,16.70
2017,08,06,00,20,16.70
2017,08,06,00,21,16.70
2017,08,06,00,22,16.70
2017,08,06,00,23,16.70
2017,08,06,00,24,16.70
2017,08,06,00,25,16.70
2017,08,06,00,26,16.70
2017,08,06,00,27,16.70
2017,08,06,00,28,16.60
2017,08,06,00,29,16.60
2017,08,06,00,30,16.60
2017,08,06,00,31,16.50
2017,08,06,00,32,16.50
2017,08,06,00,33,16.50
2017,08,06,00,34,16.50
2017,08,06,00,35,16.50
2017,08,06,00,36,16.40
2017,08,06,00,37,16.40
2017,08,06,00,38,16.40
2017,08,06,00,39,16.40
2017,08,06,00,40,16.40
2017,08,06,00,41,16.40
2017,08,06,00,42,16.40
2017,08,06,00,43,16.40
2017,08,06,00,44,16.40
2017,08,06,00,45,16.40
2017,08,06,00,46,16.40
2017,08,06,00,47,16.40
2017,08,06,00,48,16.30
2017,08,06,00,49,16.30
2017,08,06,00,50,16.30
2017,08,06,00,51,16.30
2017,08,06,00,52,16.30
2017,08,06,00,53,16.30
2017,08,06,00,54,16.30
2017,08,06,00,55,16.20
2017,08,06,00,56,16.20
2017,08,06,00,57,16.20
2017,08,06,00,58,16.20
2017,08,06,00,59,16.20
2017,08,06,01,00,16.10
2017,08,06,01,01,16.10
2017,08,06,01,02,16.10
2017,08,06,01,03,16.00
2017,08,06,01,04,16.00
2017,08,06,01,05,16.00
2017,08,06,01,06,16.00
2017,08,06,01,07,15.90
2017,08,06,01,08,15.90
2017,08,06,01,09,15.90
2017,08,06,01,10,15.90
2017,08,06,01,11,15.90
2017,08,06,01,12,15.90
2017,08,06,01,13,15.90
2017,08,06,01,14,15.90
2017,08,06,01,15,15.90
2017,08,06,01,16,15.90
2017,08,06,01,17,15.90
2017,08,06,01,18,15.90
2017,08,06,01,19,15.80
2017,08,06,01,20,15.80
2017,08,06,01,21,15.80
2017,08,06,01,22,15.80
2017,08,06,01,23,15.80
2017,08,06,01,24,15.80
2017,08,06,01,25,15.80
2017,08,06,01,26,15.70
2017,08,06,01,27,15.70
2017,08,06,01,28,15.70
2017,08,06,01,29,15.70
2017,08,06,01,30,15.70
2017,08,06,01,31,15.70
2017,08,06,01,32,15.70
2017,08,06,01,33,15.70
2017,08,06,01,34,15.70
2017,08,06,01,35,15.70
2017,08,06,01,36,15.60
2017,08,06,01,37,15.60
2017,08,06,01,38,15.60
2017,08,06,01,39,15.60
2017,08,06,01,40,15.60
2017,08,06,01,41,15.60
2017,08,06,01,42,15.60
2017,08,06,01,43,15.50
2017,08,06,01,44,15.50
2017,08,06,01,45,15.50
2017,08,06,01,46,15.50
2017,08,06,01,47,15.50
2017,08,06,01,48,15.50
2017,08,06,01,49,15.40
2017,08,06,01,50,15.40
2017,08,06,01,51,15.40
2017,08,06,01,52,15.40
2017,08,06,01,53,15.40
2017,08,06,01,54,15.40
2017,08,06,01,55,15.40
2017,08,06,01,56,15.40
2017,08,06,01,57,15.40
2017,08,06,01,58,15.40
2017,08,06,01,59,15.40
2017,08,06,02,00,15.30
2017,08,06,02,01,15.30
2017,08,06,02,02,15.30
2017,08,06,02,03,15.30
2017,08,06,02,04,15.30
2017,08,06,02,05,15.30
2017,08,06,02,06,15.30
2017,08,06,02,07,15.30
2017,08,06,02,08,15.20
2017,08,06,02,09,15.20
2017,08,06,02,10,15.20
2017,08,06,02,11,15.20
2017,08,06,02,12,15.20
2017,08,06,02,13,15.20
2017,08,06,02,14,15.20
2017,08,06,02,15,15.20
2017,08,06,02,16,15.10
2017,08,06,02,17,15.10
2017,08,06,02,18,15.00
2017,08,06,02,19,15.00
2017,08,06,02,20,15.00
2017,08,06,02,21,15.00
2017,08,06,02,22,15.00
2017,08,06,02,23,15.00
2017,08,06,02,24,15.00
2017,08,06,02,25,15.00
2017,08,06,02,26,15.00
2017,08,06,02,27,15.00
2017,08,06,02,28,15.00
2017,08,06,02,29,15.00
2017,08,06,02,30,15.00
2017,08,06,02,31,15.00
2017,08,06,02,32,15.00
2017,08,06,02,33,15.00
2017,08,06,02,34,15.00
2017,08,06,02,35,15.00
2017,08,06,02,36,15.00
2017,08,06,02,37,15.00
2017,08,06,02,38,15.00
2017,08,06,02,39,15.00
2017,08,06,02,40,15.00
2017,08,06,02,41,15.00
2017,08,06,02,42,15.00
2017,08,06,02,43,15.00
2017,08,06,02,44,15.00
2017,08,06,02,45,15.00
2017,08,06,02,46,15.00
2017,08,06,02,47,15.00
2017,08,06,02,48,15.00
2017,08,06,02,49,15.00
2017,08,06,02,50,15.00
2017,08,06,02,51,15.00
2017,08,06,02,52,14.90
2017,08,06,02,53,14.90
2017,08,06,02,54,14.90
2017,08,06,02,55,14.90
2017,08,06,02,56,14.90
2017,08,06,02,57,14.80
2017,08,06,02,58,14.80
2017,08,06,02,59,14.80
2017,08,06,03,00,14.80
2017,08,06,03,01,14.80
2017,08,06,03,02,14.80
2017,08,06,03,03,14.80
2017,08,06,03,04,14.80
2017,08,06,03,05,14.80
2017,08,06,03,06,14.80
2017,08,06,03,07,14.70
2017,08,06,03,08,14.70
2017,08,06,03,09,14.70
2017,08,06,03,10,14.70
2017,08,06,03,11,14.70
2017,08,06,03,12,14.60
2017,08,06,03,13,14.60
2017,08,06,03,14,14.60
2017,08,06,03,15,14.60
2017,08,06,03,16,14.60
2017,08,06,03,17,14.60
2017,08,06,03,18,14.60
2017,08,06,03,19,14.60
2017,08,06,03,20,14.60
2017,08,06,03,21,14.60
2017,08,06,03,22,14.60
2017,08,06,03,23,14.60
2017,08,06,03,24,14.60
2017,08,06,03,25,14.60
2017,08,06,03,26,14.60
2017,08,06,03,27,14.60
2017,08,06,03,28,14.50
2017,08,06,03,29,14.50
2017,08,06,03,30,14.50
2017,08,06,03,31,14.50
2017,08,06,03,32,14.50
2017,08,06,03,33,14.50
2017,08,06,03,34,14.50
2017,08,06,03,35,14.40
2017,08,06,03,36,14.40
2017,08,06,03,37,14.40
2017,08,06,03,38,14.40
2017,08,06,03,39,14.40
2017,08,06,03,40,14.40
2017,08,06,03,41,14.40
2017,08,06,03,42,14.40
2017,08,06,03,43,14.40
2017,08,06,03,44,14.30
2017,08,06,03,45,14.30
2017,08,06,03,46,14.30
2017,08,06,03,47,14.30
2017,08,06,03,48,14.30
2017,08,06,03,49,14.30
2017,08,06,03,50,14.30
2017,08,06,03,51,14.30
2017,08,06,03,52,14.30
2017,08,06,03,53,14.30
2017,08,06,03,54,14.20
2017,08,06,03,55,14.20
2017,08,06,03,56,14.20
2017,08,06,03,57,14.20
2017,08,06,03,58,14.20
2017,08,06,03,59,14.20
2017,08,06,04,00,14.20
2017,08,06,04,01,14.20
2017,08,06,04,02,14.20
2017,08,06,04,03,14.20
2017,08,06,04,04,14.20
2017,08,06,04,05,14.20
2017,08,06,04,06,14.20
2017,08,06,04,07,14.10
2017,08,06,04,08,14.10
2017,08,06,04,09,14.10
2017,08,06,04,10,14.10
2017,08,06,04,11,14.10
2017,08,06,04,12,14.10
2017,08,06,04,13,14.10
2017,08,06,04,14,14.10
2017,08,06,04,15,14.10
2017,08,06,04,16,14.10
2017,08,06,04,17,14.10
2017,08,06,04,18,14.10
2017,08,06,04,19,14.10
2017,08,06,04,20,14.10
2017,08,06,04,21,14.10
2017,08,06,04,22,14.10
2017,08,06,04,23,14.10
2017,08,06,04,24,14.10
2017,08,06,04,25,14.10
2017,08,06,04,26,14.10
2017,08,06,04,27,14.10
2017,08,06,04,28,14.00
2017,08,06,04,29,14.00
2017,08,06,04,30,14.00
2017,08,06,04,31,14.00
2017,08,06,04,32,14.00
2017,08,06,04,33,14.00
2017,08,06,04,34,13.90
2017,08,06,04,35,13.90
2017,08,06,04,36,13.90
2017,08,06,04,37,13.90
2017,08,06,04,38,13.90
2017,08,06,04,39,13.90
2017,08,06,04,40,13.90
2017,08,06,04,41,13.90
2017,08,06,04,42,13.90
2017,08,06,04,43,13.90
2017,08,06,04,44,13.90
2017,08,06,04,45,13.80
2017,08,06,04,46,13.80
2017,08,06,04,47,13.80
2017,08,06,04,48,13.80
2017,08,06,04,49,13.80
2017,08,06,04,50,13.80
2017,08,06,04,51,13.70
2017,08,06,04,52,13.70
2017,08,06,04,53,13.70
2017,08,06,04,54,13.70
2017,08,06,04,55,13.70
2017,08,06,04,56,13.70
2017,08,06,04,57,13.60
2017,08,06,04,58,13.60
2017,08,06,04,59,13.60
2017,08,06,05,00,13.60
2017,08,06,05,01,13.60
2017,08,06,05,02,13.60
2017,08,06,05,03,13.60
2017,08,06,05,04,13.60
2017,08,06,05,05,13.60
2017,08,06,05,06,13.60
2017,08,06,05,07,13.60
2017,08,06,05,08,13.60
2017,08,06,05,09,13.60
2017,08,06,05,10,13.60
2017,08,06,05,11,13.60
2017,08,06,05,12,13.60
2017,08,06,05,13,13.70
2017,08,06,05,14,13.70
2017,08,06,05,15,13.70
2017,08,06,05,16,13.70
2017,08,06,05,17,13.70
2017,08,06,05,18,13.70
2017,08,06,05,19,13.70
2017,08,06,05,20,13.70
2017,08,06,05,21,13.70
2017,08,06,05,22,13.70
2017,08,06,05,23,13.70
2017,08,06,05,24,13.70
2017,08,06,05,25,13.70
2017,08,06,05,26,13.70
2017,08,06,05,27,13.70
2017,08,06,05,28,13.70
2017,08,06,05,29,13.70
2017,08,06,05,30,13.70
2017,08,06,05,31,13.70
2017,08,06,05,32,13.60
2017,08,06,05,33,13.60
2017,08,06,05,34,13.60
2017,08,06,05,35,13.60
2017,08,06,05,36,13.60
2017,08,06,05,37,13.60
2017,08,06,05,38,13.60
2017,08,06,05,39,13.60
2017,08,06,05,40,13.60
2017,08,06,05,41,13.60
2017,08,06,05,42,13.50
2017,08,06,05,43,13.50
2017,08,06,05,44,13.50
2017,08,06,05,45,13.50
2017,08,06,05,46,13.40
2017,08,06,05,47,13.40
2017,08,06,05,48,13.40
2017,08,06,05,49,13.30
2017,08,06,05,50,13.30
2017,08,06,05,51,13.30
2017,08,06,05,52,13.30
2017,08,06,05,53,13.20
2017,08,06,05,54,13.20
2017,08,06,05,55,13.20
2017,08,06,05,56,13.20
2017,08,06,05,57,13.20
2017,08,06,05,58,13.20
2017,08,06,05,59,13.20
2017,08,06,06,00,13.20
2017,08,06,06,01,13.20
2017,08,06,06,02,13.20
2017,08,06,06,03,13.20
2017,08,06,06,04,13.20
2017,08,06,06,05,13.20
2017,08,06,06,06,13.20
2017,08,06,06,07,13.20
2017,08,06,06,08,13.20
2017,08,06,06,09,13.30
2017,08,06,06,10,13.30
2017,08,06,06,11,13.30
2017,08,06,06,12,13.30
2017,08,06,06,13,13.30
2017,08,06,06,14,13.30
2017,08,06,06,15,13.30
2017,08,06,06,16,13.30
2017,08,06,06,17,13.30
2017,08,06,06,18,13.30
2017,08,06,06,19,13.30
2017,08,06,06,20,13.30
2017,08,06,06,21,13.30
2017,08,06,06,22,13.20
2017,08,06,06,23,13.20
2017,08,06,06,24,13.20
2017,08,06,06,25,13.20
2017,08,06,06,26,13.20
2017,08,06,06,27,13.20
2017,08,06,06,28,13.20
2017,08,06,06,29,13.20
2017,08,06,06,30,13.20
2017,08,06,06,31,13.20
2017,08,06,06,32,13.20
2017,08,06,06,33,13.20
2017,08,06,06,34,13.20
2017,08,06,06,35,13.20
2017,08,06,06,36,13.20
2017,08,06,06,37,13.20
2017,08,06,06,38,13.20
2017,08,06,06,39,13.10
2017,08,06,06,40,13.10
2017,08,06,06,41,13.10
2017,08,06,06,42,13.20
2017,08,06,06,43,13.20
2017,08,06,06,44,13.20
2017,08,06,06,45,13.20
2017,08,06,06,46,13.20
2017,08,06,06,47,13.20
2017,08,06,06,48,13.20
2017,08,06,06,49,13.20
2017,08,06,06,50,13.20
2017,08,06,06,51,13.20
2017,08,06,06,52,13.20
2017,08,06,06,53,13.20
2017,08,06,06,54,13.20
2017,08,06,06,55,13.20
2017,08,06,06,56,13.20
2017,08,06,06,57,13.20
2017,08,06,06,58,13.20
2017,08,06,06,59,13.20
2017,08,06,07,00,13.30
2017,08,06,07,01,13.40
2017,08,06,07,02,13.40
2017,08,06,07,03,13.50
2017,08,06,07,04,13.50
2017,08,06,07,05,13.60
2017,08,06,07,06,13.60
2017,08,06,07,07,13.60
2017,08,06,07,08,13.60
2017,08,06,07,09,13.70
2017,08,06,07,10,13.70
2017,08,06,07,11,13.70
2017,08,06,07,12,13.80
2017,08,06,07,13,13.80
2017,08,06,07,14,13.90
2017,08,06,07,15,13.90
2017,08,06,07,16,14.00
2017,08,06,07,17,14.00
2017,08,06,07,18,14.10
2017,08,06,07,19,14.10
2017,08,06,07,20,14.20
2017,08,06,07,21,14.20
2017,08,06,07,22,14.20
2017,08,06,07,23,14.30
2017,08,06,07,24,14.30
2017,08,06,07,25,14.30
2017,08,06,07,26,14.30
2017,08,06,07,27,14.30
2017,08,06,07,28,14.40
2017,08,06,07,29,14.40
2017,08,06,07,30,14.40
2017,08,06,07,31,14.50
2017,08,06,07,32,14.50
2017,08,06,07,33,14.60
2017,08,06,07,34,14.60
2017,08,06,07,35,14.70
2017,08,06,07,36,14.70
2017,08,06,07,37,14.70
2017,08,06,07,38,14.80
2017,08,06,07,39,14.80
2017,08,06,07,40,14.90
2017,08,06,07,41,14.90
2017,08,06,07,42,15.00
2017,08,06,07,43,15.00
2017,08,06,07,44,15.00
2017,08,06,07,45,15.00
2017,08,06,07,46,15.00
2017,08,06,07,47,15.00
2017,08,06,07,48,15.10
2017,08,06,07,49,15.10
2017,08,06,07,50,15.20
2017,08,06,07,51,15.20
2017,08,06,07,52,15.30
2017,08,06,07,53,15.30
2017,08,06,07,54,15.30
2017,08,06,07,55,15.40
2017,08,06,07,56,15.40
2017,08,06,07,57,15.50
2017,08,06,07,58,15.60
2017,08,06,07,59,15.70
2017,08,06,08,00,15.70
2017,08,06,08,01,15.80
2017,08,06,08,02,15.80
2017,08,06,08,03,15.90
2017,08,06,08,04,15.90
2017,08,06,08,05,16.00
2017,08,06,08,06,16.10
2017,08,06,08,07,16.20
2017,08,06,08,08,16.20
2017,08,06,08,09,16.20
2017,08,06,08,10,16.20
2017,08,06,08,11,16.30
2017,08,06,08,12,16.30
2017,08,06,08,13,16.40
2017,08,06,08,14,16.40
2017,08,06,08,15,16.50
2017,08,06,08,16,16.60
2017,08,06,08,17,16.60
2017,08,06,08,18,16.70
2017,08,06,08,19,16.80
2017,08,06,08,20,16.80
2017,08,06,08,21,16.80
2017,08,06,08,22,16.80
2017,08,06,08,23,16.90
2017,08,06,08,24,16.90
2017,08,06,08,25,17.00
2017,08,06,08,26,17.10
2017,08,06,08,27,17.10
2017,08,06,08,28,17.20
2017,08,06,08,29,17.20
2017,08,06,08,30,17.20
2017,08,06,08,31,17.30
2017,08,06,08,32,17.30
2017,08,06,08,33,17.30
2017,08,06,08,34,17.30
2017,08,06,08,35,17.40
2017,08,06,08,36,17.50
2017,08,06,08,37,17.50
2017,08,06,08,38,17.60
2017,08,06,08,39,17.60
2017,08,06,08,40,17.70
2017,08,06,08,41,17.70
2017,08,06,08,42,17.70
2017,08,06,08,43,17.80
2017,08,06,08,44,17.80
2017,08,06,08,45,17.90
2017,08,06,08,46,17.90
2017,08,06,08,47,18.00
2017,08,06,08,48,18.10
2017,08,06,08,49,18.10
2017,08,06,08,50,18.10
2017,08,06,08,51,18.10
2017,08,06,08,52,18.20
2017,08,06,08,53,18.20
2017,08,06,08,54,18.20
2017,08,06,08,55,18.20
2017,08,06,08,56,18.20
2017,08,06,08,57,18.20
2017,08,06,08,58,18.30
2017,08,06,08,59,18.30
2017,08,06,09,00,18.30
2017,08,06,09,01,18.30
2017,08,06,09,02,18.40
2017,08,06,09,03,18.50
2017,08,06,09,04,18.50
2017,08,06,09,05,18.60
2017,08,06,09,06,18.60
2017,08,06,09,07,18.70
2017,08,06,09,08,18.70
2017,08,06,09,09,18.80
2017,08,06,09,10,18.80
2017,08,06,09,11,18.90
2017,08,06,09,12,19.00
2017,08,06,09,13,19.00
2017,08,06,09,14,19.10
2017,08,06,09,15,19.10
2017,08,06,09,16,19.20
2017,08,06,09,17,19.20
2017,08,06,09,18,19.20
2017,08,06,09,19,19.20
2017,08,06,09,20,19.20
2017,08,06,09,21,19.20
2017,08,06,09,22,19.20
2017,08,06,09,23,19.20
2017,08,06,09,24,19.20
2017,08,06,09,25,19.20
2017,08,06,09,26,19.20
2017,08,06,09,27,19.20
2017,08,06,09,28,19.10
2017,08,06,09,29,19.10
2017,08,06,09,30,19.10
2017,08,06,09,31,19.10
2017,08,06,09,32,19.10
2017,08,06,09,33,19.20
2017,08,06,09,34,19.20
2017,08,06,09,35,19.20
2017,08,06,09,36,19.30
2017,08,06,09,37,19.30
2017,08,06,09,38,19.30
2017,08,06,09,39,19.30
2017,08,06,09,40,19.20
2017,08,06,09,41,19.20
2017,08,06,09,42,19.20
2017,08,06,09,43,19.20
2017,08,06,09,44,19.20
2017,08,06,09,45,19.20
2017,08,06,09,46,19.20
2017,08,06,09,47,19.20
2017,08,06,09,48,19.20
2017,08,06,09,49,19.20
2017,08,06,09,50,19.20
2017,08,06,09,51,19.30
2017,08,06,09,52,19.30
2017,08,06,09,53,19.30
2017,08,06,09,54,19.30
2017,08,06,09,55,19.30
2017,08,06,09,56,19.30
2017,08,06,09,57,19.30
2017,08,06,09,58,19.30
2017,08,06,09,59,19.40
2017,08,06,10,00,19.40
2017,08,06,10,01,19.40
2017,08,06,10,02,19.40
2017,08,06,10,03,19.40
2017,08,06,10,04,19.40
2017,08,06,10,05,19.40
2017,08,06,10,06,19.40
2017,08,06,10,07,19.40
2017,08,06,10,08,19.30
2017,08,06,10,09,19.30
2017,08,06,10,10,19.30
2017,08,06,10,11,19.20
2017,08,06,10,12,19.20
2017,08,06,10,13,19.20
2017,08,06,10,14,19.30
2017,08,06,10,15,19.30
2017,08,06,10,16,19.30
2017,08,06,10,17,19.30
2017,08,06,10,18,19.30
2017,08,06,10,19,19.30
2017,08,06,10,20,19.40
2017,08,06,10,21,19.40
2017,08,06,10,22,19.40
2017,08,06,10,23,19.40
2017,08,06,10,24,19.40
2017,08,06,10,25,19.40
2017,08,06,10,26,19.50
2017,08,06,10,27,19.60
2017,08,06,10,28,19.60
2017,08,06,10,29,19.60
2017,08,06,10,30,19.50
2017,08,06,10,31,19.50
2017,08,06,10,32,19.50
2017,08,06,10,33,19.50
2017,08,06,10,34,19.60
2017,08,06,10,35,19.60
2017,08,06,10,36,19.70
2017,08,06,10,37,19.70
2017,08,06,10,38,19.70
2017,08,06,10,39,19.70
2017,08,06,10,40,19.70
2017,08,06,10,41,19.70
2017,08,06,10,42,19.70
2017,08,06,10,43,19.70
2017,08,06,10,44,19.70
2017,08,06,10,45,19.70
2017,08,06,10,46,19.70
2017,08,06,10,47,19.70
2017,08,06,10,48,19.80
2017,08,06,10,49,19.80
2017,08,06,10,50,19.80
2017,08,06,10,51,19.80
2017,08,06,10,52,19.80
2017,08,06,10,53,19.70
2017,08,06,10,54,19.70
2017,08,06,10,55,19.70
2017,08,06,10,56,19.70
2017,08,06,10,57,19.70
2017,08,06,10,58,19.70
2017,08,06,10,59,19.70
2017,08,06,11,00,19.60
2017,08,06,11,01,19.60
2017,08,06,11,02,19.60
2017,08,06,11,03,19.60
2017,08,06,11,04,19.50
2017,08,06,11,05,19.50
2017,08,06,11,06,19.40
2017,08,06,11,07,19.40
2017,08,06,11,08,19.30
2017,08,06,11,09,19.30
2017,08,06,11,10,19.30
2017,08,06,11,11,19.40
2017,08,06,11,12,19.40
2017,08,06,11,13,19.50
2017,08,06,11,14,19.50
2017,08,06,11,15,19.60
2017,08,06,11,16,19.60
2017,08,06,11,17,19.60
2017,08,06,11,18,19.60
2017,08,06,11,19,19.60
2017,08,06,11,20,19.60
2017,08,06,11,21,19.60
2017,08,06,11,22,19.60
2017,08,06,11,23,19.60
2017,08,06,11,24,19.60
2017,08,06,11,25,19.70
2017,08,06,11,26,19.70
2017,08,06,11,27,19.80
2017,08,06,11,28,19.80
2017,08,06,11,29,19.80
2017,08,06,11,30,19.90
2017,08,06,11,31,19.90
2017,08,06,11,32,20.00
2017,08,06,11,33,20.00
2017,08,06,11,34,20.10
2017,08,06,11,35,20.10
2017,08,06,11,36,20.20
2017,08,06,11,37,20.20
2017,08,06,11,38,20.20
2017,08,06,11,39,20.30
2017,08,06,11,40,20.30
2017,08,06,11,41,20.40
2017,08,06,11,42,20.40
2017,08,06,11,43,20.40
2017,08,06,11,44,20.40
2017,08,06,11,45,20.40
2017,08,06,11,46,20.50
2017,08,06,11,47,20.50
2017,08,06,11,48,20.60
2017,08,06,11,49,20.60
2017,08,06,11,50,20.70
2017,08,06,11,51,20.80
2017,08,06,11,52,20.80
2017,08,06,11,53,20.90
2017,08,06,11,54,21.00
2017,08,06,11,55,21.00
2017,08,06,11,56,21.10
2017,08,06,11,57,21.10
2017,08,06,11,58,21.10
2017,08,06,11,59,21.20
2017,08,06,12,00,21.20
2017,08,06,12,01,21.20
2017,08,06,12,02,21.30
2017,08,06,12,03,21.30
2017,08,06,12,04,21.30
2017,08,06,12,05,21.40
2017,08,06,12,06,21.40
2017,08,06,12,07,21.50
2017,08,06,12,08,21.60
2017,08,06,12,09,21.70
2017,08,06,12,10,21.70
2017,08,06,12,11,21.70
2017,08,06,12,12,21.60
2017,08,06,12,13,21.60
2017,08,06,12,14,21.60
2017,08,06,12,15,21.70
2017,08,06,12,16,21.70
2017,08,06,12,17,21.70
2017,08,06,12,18,21.80
2017,08,06,12,19,21.80
2017,08,06,12,20,21.80
2017,08,06,12,21,21.80
2017,08,06,12,22,21.80
2017,08,06,12,23,21.80
2017,08,06,12,24,21.80
2017,08,06,12,25,21.80
2017,08,06,12,26,21.80
2017,08,06,12,27,21.80
2017,08,06,12,28,21.80
2017,08,06,12,29,21.80
2017,08,06,12,30,21.80
2017,08,06,12,31,21.80
2017,08,06,12,32,21.90
2017,08,06,12,33,21.90
2017,08,06,12,34,21.90
2017,08,06,12,35,22.00
2017,08,06,12,36,22.00
2017,08,06,12,37,22.10
2017,08,06,12,38,22.10
2017,08,06,12,39,22.20
2017,08,06,12,40,22.30
2017,08,06,12,41,22.30
2017,08,06,12,42,22.30
2017,08,06,12,43,22.30
2017,08,06,12,44,22.30
2017,08,06,12,45,22.30
2017,08,06,12,46,22.30
2017,08,06,12,47,22.30
2017,08,06,12,48,22.30
2017,08,06,12,49,22.30
2017,08,06,12,50,22.40
2017,08,06,12,51,22.40
2017,08,06,12,52,22.40
2017,08,06,12,53,22.50
2017,08,06,12,54,22.50
2017,08,06,12,55,22.50
2017,08,06,12,56,22.50
2017,08,06,12,57,22.50
2017,08,06,12,58,22.50
2017,08,06,12,59,22.40
2017,08,06,13,00,22.40
2017,08,06,13,01,22.40
2017,08,06,13,02,22.40
2017,08,06,13,03,22.40
2017,08,06,13,04,22.40
2017,08,06,13,05,22.40
2017,08,06,13,06,22.40
2017,08,06,13,07,22.40
2017,08,06,13,08,22.50
2017,08,06,13,09,22.60
2017,08,06,13,10,22.60
2017,08,06,13,11,22.70
2017,08,06,13,12,22.70
2017,08,06,13,13,22.80
2017,08,06,13,14,22.80
2017,08,06,13,15,22.90
2017,08,06,13,16,23.00
2017,08,06,13,17,23.00
2017,08,06,13,18,23.00
2017,08,06,13,19,23.10
2017,08,06,13,20,23.10
2017,08,06,13,21,23.10
2017,08,06,13,22,23.10
2017,08,06,13,23,23.10
2017,08,06,13,24,23.10
2017,08,06,13,25,23.20
2017,08,06,13,26,23.30
2017,08,06,13,27,23.30
2017,08,06,13,28,23.30
2017,08,06,13,29,23.40
2017,08,06,13,30,23.50
2017,08,06,13,31,23.60
2017,08,06,13,32,23.70
2017,08,06,13,33,23.80
2017,08,06,13,34,23.90
2017,08,06,13,35,24.00
2017,08,06,13,36,24.00
2017,08,06,13,37,23.90
2017,08,06,13,38,24.00
2017,08,06,13,39,24.00
2017,08,06,13,40,24.00
2017,08,06,13,41,24.10
2017,08,06,13,42,24.10
2017,08,06,13,43,24.10
2017,08,06,13,44,24.10
2017,08,06,13,45,24.00
2017,08,06,13,46,23.90
2017,08,06,13,47,23.80
2017,08,06,13,48,23.70
2017,08,06,13,49,23.70
2017,08,06,13,50,23.70
2017,08,06,13,51,23.70
2017,08,06,13,52,23.80
2017,08,06,13,53,23.80
2017,08,06,13,54,23.80
2017,08,06,13,55,23.90
2017,08,06,13,56,23.90
2017,08,06,13,57,24.00
2017,08,06,13,58,24.00
2017,08,06,13,59,24.00
2017,08,06,14,00,24.00
2017,08,06,14,01,24.00
2017,08,06,14,02,24.00
2017,08,06,14,03,24.00
2017,08,06,14,04,24.10
2017,08,06,14,05,24.10
2017,08,06,14,06,24.10
2017,08,06,14,07,24.10
2017,08,06,14,08,24.00
2017,08,06,14,09,23.90
2017,08,06,14,10,23.90
2017,08,06,14,11,23.90
2017,08,06,14,12,24.00
2017,08,06,14,13,24.10
2017,08,06,14,14,24.10
2017,08,06,14,15,24.10
2017,08,06,14,16,24.10
2017,08,06,14,17,24.10
2017,08,06,14,18,24.10
2017,08,06,14,19,24.10
2017,08,06,14,20,24.10
2017,08,06,14,21,24.10
2017,08,06,14,22,24.10
2017,08,06,14,23,24.10
2017,08,06,14,24,24.10
2017,08,06,14,25,24.20
2017,08,06,14,26,24.20
2017,08,06,14,27,24.30
2017,08,06,14,28,24.30
2017,08,06,14,29,24.30
2017,08,06,14,30,24.40
2017,08,06,14,31,24.40
2017,08,06,14,32,24.40
2017,08,06,14,33,24.30
2017,08,06,14,34,24.30
2017,08,06,14,35,24.20
2017,08,06,14,36,24.20
2017,08,06,14,37,24.20
2017,08,06,14,38,24.20
2017,08,06,14,39,24.20
2017,08,06,14,40,24.20
2017,08,06,14,41,24.30
2017,08,06,14,42,24.30
2017,08,06,14,43,24.30
2017,08,06,14,44,24.30
2017,08,06,14,45,24.30
2017,08,06,14,46,24.30
2017,08,06,14,47,24.30
2017,08,06,14,48,24.30
2017,08,06,14,49,24.30
2017,08,06,14,50,24.40
2017,08,06,14,51,24.40
2017,08,06,14,52,24.50
2017,08,06,14,53,24.50
2017,08,06,14,54,24.60
2017,08,06,14,55,24.60
2017,08,06,14,56,24.60
2017,08,06,14,57,24.70
2017,08,06,14,58,24.70
2017,08,06,14,59,24.70
2017,08,06,15,00,24.80
2017,08,06,15,01,24.80
2017,08,06,15,02,24.80
2017,08,06,15,03,24.80
2017,08,06,15,04,24.70
2017,08,06,15,05,24.60
2017,08,06,15,06,24.60
2017,08,06,15,07,24.60
2017,08,06,15,08,24.70
2017,08,06,15,09,24.80
2017,08,06,15,10,24.80
2017,08,06,15,11,24.90
2017,08,06,15,12,24.90
2017,08,06,15,13,24.90
2017,08,06,15,14,25.00
2017,08,06,15,15,25.00
2017,08,06,15,16,25.00
2017,08,06,15,17,24.90
2017,08,06,15,18,24.90
2017,08,06,15,19,25.00
2017,08,06,15,20,25.00
2017,08,06,15,21,25.00
2017,08,06,15,22,25.10
2017,08,06,15,23,25.10
2017,08,06,15,24,25.10
2017,08,06,15,25,25.20
2017,08,06,15,26,25.20
2017,08,06,15,27,25.20
2017,08,06,15,28,25.20
2017,08,06,15,29,25.20
2017,08,06,15,30,25.20
2017,08,06,15,31,25.20
2017,08,06,15,32,25.10
2017,08,06,15,33,25.10
2017,08,06,15,34,25.10
2017,08,06,15,35,25.10
2017,08,06,15,36,25.10
2017,08,06,15,37,25.10
2017,08,06,15,38,25.20
2017,08,06,15,39,25.20
2017,08,06,15,40,25.20
2017,08,06,15,41,25.20
2017,08,06,15,42,25.10
2017,08,06,15,43,25.10
2017,08,06,15,44,25.10
2017,08,06,15,45,25.10
2017,08,06,15,46,25.10
2017,08,06,15,47,25.20
2017,08,06,15,48,25.20
2017,08,06,15,49,25.30
2017,08,06,15,50,25.30
2017,08,06,15,51,25.40
2017,08,06,15,52,25.50
2017,08,06,15,53,25.50
2017,08,06,15,54,25.60
2017,08,06,15,55,25.60
2017,08,06,15,56,25.50
2017,08,06,15,57,25.40
2017,08,06,15,58,25.40
2017,08,06,15,59,25.40
2017,08,06,16,00,25.30
2017,08,06,16,01,25.30
2017,08,06,16,02,25.30
2017,08,06,16,03,25.30
2017,08,06,16,04,25.20
2017,08,06,16,05,25.20
2017,08,06,16,06,25.20
2017,08,06,16,07,25.20
2017,08,06,16,08,25.30
2017,08,06,16,09,25.30
2017,08,06,16,10,25.30
2017,08,06,16,11,25.30
2017,08,06,16,12,25.40
2017,08,06,16,13,25.40
2017,08,06,16,14,25.50
2017,08,06,16,15,25.60
2017,08,06,16,16,25.60
2017,08,06,16,17,25.70
2017,08,06,16,18,25.70
2017,08,06,16,19,25.70
2017,08,06,16,20,25.70
2017,08,06,16,21,25.70
2017,08,06,16,22,25.70
2017,08,06,16,23,25.70
2017,08,06,16,24,25.70
2017,08,06,16,25,25.70
2017,08,06,16,26,25.70
2017,08,06,16,27,25.70
2017,08,06,16,28,25.70
2017,08,06,16,29,25.80
2017,08,06,16,30,25.80
2017,08,06,16,31,25.90
2017,08,06,16,32,25.90
2017,08,06,16,33,25.90
2017,08,06,16,34,25.90
2017,08,06,16,35,26.00
2017,08,06,16,36,26.10
2017,08,06,16,37,26.10
2017,08,06,16,38,26.10
2017,08,06,16,39,26.20
2017,08,06,16,40,26.20
2017,08,06,16,41,26.20
2017,08,06,16,42,26.30
2017,08,06,16,43,26.30
2017,08,06,16,44,26.20
2017,08,06,16,45,26.20
2017,08,06,16,46,26.20
2017,08,06,16,47,26.10
2017,08,06,16,48,26.10
2017,08,06,16,49,26.10
2017,08,06,16,50,26.10
2017,08,06,16,51,26.10
2017,08,06,16,52,26.10
2017,08,06,16,53,26.10
2017,08,06,16,54,26.00
2017,08,06,16,55,25.90
2017,08,06,16,56,25.90
2017,08,06,16,57,25.90
2017,08,06,16,58,25.90
2017,08,06,16,59,25.90
2017,08,06,17,00,25.90
2017,08,06,17,01,25.90
2017,08,06,17,02,25.90
2017,08,06,17,03,25.90
2017,08,06,17,04,25.90
2017,08,06,17,05,25.90
2017,08,06,17,06,25.90
2017,08,06,17,07,25.90
2017,08,06,17,08,25.90
2017,08,06,17,09,25.90
2017,08,06,17,10,25.90
2017,08,06,17,11,26.00
2017,08,06,17,12,25.90
2017,08,06,17,13,25.90
2017,08,06,17,14,25.90
2017,08,06,17,15,25.90
2017,08,06,17,16,25.90
2017,08,06,17,17,25.90
2017,08,06,17,18,25.90
2017,08,06,17,19,25.90